Location: Pel�-Koumbol�
(14.9505°N, 3.0798°W)
Time: 14:08:05
(UTC+00:00)

Cosmos 2221 - Pass Details

Date: 17 February 2020
Orbit: 593 x 616 km, 82.5° (Epoch: 04 April)

Event Time Altitude Azimuth Distance (km) Brightness Sun altitude
Rises 05:43:40 0° 211° (SSW) 2,817 5.7 -13.3°
Reaches altitude 10° 05:46:17 10° 227° (SW) 1,917 4.7 -12.6°
Maximum altitude 05:49:30 21° 277° (W) 1,342 3.6 -11.9°
Drops below altitude 10° 05:52:44 10° 327° (NNW) 1,922 4.7 -11.1°
Sets 05:55:23 0° 343° (NNW) 2,827 5.7 -10.5°
